Westerly, RI

5:15 PM EDT on August 22, 2017 (GMT -0400)
Westerly State

Weather History for KWST - February, 2013

Change the Weather History Date:

Thursday, February 21, 2013

  Actual Average (KGON) Record (KGON)
Temperature  
Mean Temperature 28 °F -  
Max Temperature 33 °F 42 °F 60 °F (1981)
Min Temperature 24 °F 22 °F -5 °F (2015)
Degree Days  
Heating Degree Days 36    
Moisture  
Dew Point 12 °F    
Average Humidity 52    
Maximum Humidity 60    
Minimum Humidity 42    
Precipitation  
Precipitation 0.00 in - - ()
Sea Level Pressure  
Sea Level Pressure 29.95 in    
Wind  
Wind Speed 9 mph (WNW)    
Max Wind Speed 16 mph    
Max Gust Speed 30 mph    
Visibility 10 miles    
Events      
Averages and records for this station are not official NWS values.
T = Trace of Precipitation, MM = Missing Value Source: NWS Daily Summary

Daily Weather History Graph

Daily Weather History Graph

Search for Another Location

Airport or City:

Trip Planner

Search our weather history database for the weather conditions in past years. The results will help you decide how hot, cold, wet, or windy it might be!

Date:

Astronomy

Feb. 21, 2013 Rise Set
Actual Time 6:33 AM EST 5:28 PM EST
Civil Twilight 6:05 AM EST 5:56 PM EST
Nautical Twilight 5:33 AM EST 6:28 PM EST
Astronomical Twilight 5:01 AM EST 7:00 PM EST
Moon 1:39 PM EST (2/21) 3:37 AM EST (2/21)
Length of Visible Light 11h 51m
Length of Day
10h 55m
Waxing Gibbous, 83% of the Moon is Illuminated
Feb 21
Waxing Gibbous
Feb 25
Full
Mar 4
Last Quarter
Mar 11
New
Mar 19
First Quarter

Hourly Weather History & Observations

Time (EST) Temp. Windchill Dew Point Humidity Pressure Visibility Wind Dir Wind Speed Gust Speed Precip Events Conditions
12:53 AM 25.0 °F 17.1 °F 10.0 °F 53% 29.88 in 10.0 mi West 6.9 mph - N/A   Clear
1:53 AM 25.0 °F 17.1 °F 10.9 °F 55% 29.88 in 10.0 mi West 6.9 mph - N/A   Clear
2:53 AM 24.1 °F 16.0 °F 10.9 °F 57% 29.88 in 10.0 mi West 6.9 mph - N/A   Clear
3:53 AM 24.1 °F 19.7 °F 12.0 °F 60% 29.88 in 10.0 mi Variable 3.5 mph - N/A   Clear
5:53 AM 24.1 °F 14.4 °F 12.0 °F 60% 29.90 in 10.0 mi West 9.2 mph - N/A   Clear
7:53 AM 25.0 °F 16.3 °F 12.0 °F 58% 29.91 in 10.0 mi West 8.1 mph 17.3 mph N/A   Overcast
8:53 AM 25.0 °F 14.8 °F 12.0 °F 58% 29.89 in 10.0 mi West 10.4 mph 19.6 mph N/A   Overcast
9:53 AM 28.0 °F 18.6 °F 12.0 °F 51% 29.90 in 10.0 mi West 10.4 mph 18.4 mph N/A   Scattered Clouds
10:53 AM 30.9 °F 22.2 °F 10.0 °F 42% 29.87 in 10.0 mi NW 10.4 mph 27.6 mph N/A   Clear
11:53 AM 32.0 °F 21.2 °F 12.0 °F 44% 29.86 in 10.0 mi WNW 16.1 mph 27.6 mph N/A   Clear
12:53 PM 32.0 °F 22.5 °F 12.0 °F 44% 29.86 in 10.0 mi NW 12.7 mph 20.7 mph N/A   Partly Cloudy
1:53 PM 33.1 °F 22.6 °F 12.0 °F 42% 29.85 in 10.0 mi NW 16.1 mph 28.8 mph N/A   Clear
2:53 PM 32.0 °F 21.6 °F 12.0 °F 44% 29.87 in 10.0 mi NW 15.0 mph 24.2 mph N/A   Clear
3:53 PM 30.9 °F 20.7 °F 10.9 °F 43% 29.89 in 10.0 mi NNW 13.8 mph 29.9 mph N/A   Clear
4:53 PM 30.0 °F 19.1 °F 10.9 °F 45% 29.94 in 10.0 mi NW 15.0 mph 27.6 mph N/A   Clear
5:53 PM 28.0 °F 19.3 °F 10.9 °F 49% 29.99 in 10.0 mi NW 9.2 mph 21.9 mph N/A   Clear
6:53 PM 27.0 °F 15.2 °F 10.9 °F 51% 30.03 in 10.0 mi NNW 15.0 mph 24.2 mph N/A   Clear
7:53 PM 26.1 °F 15.6 °F 10.9 °F 53% 30.06 in 10.0 mi NW 11.5 mph 21.9 mph N/A   Clear
8:53 PM 25.0 °F 16.3 °F 10.9 °F 55% 30.12 in 10.0 mi NW 8.1 mph - N/A   Clear
9:53 PM 25.0 °F 16.3 °F 12.0 °F 58% 30.14 in 10.0 mi NNW 8.1 mph - N/A   Clear
10:53 PM 25.0 °F 18.1 °F 12.9 °F 60% 30.17 in 10.0 mi NW 5.8 mph - N/A   Clear
11:53 PM 26.1 °F 16.2 °F 14.0 °F 60% 30.22 in 10.0 mi NW 10.4 mph 18.4 mph N/A   Clear